Location: Ku?niki
(51.4449°N, 17.8974°E)
Time: 17:41:28
(UTC+00:00)

IRS-1A Rocket - Pass Details

Date: 18 September 2020
Orbit: 851 x 931 km, 99.2° (Epoch: 22 October)

Event Time Altitude Azimuth Distance (km) Brightness Sun altitude
Exits shadow 18:03:59 - 155° (SSE) 3,466 7.0 -11.4°
Reaches altitude 10° 18:06:08 10° 153° (SSE) 2,632 6.4 -11.7°
Maximum altitude 18:12:01 74° 70° (ENE) 967 4.4 -12.6°
Drops below altitude 10° 18:17:52 10° 347° (NNW) 2,622 7.2 -13.4°
Sets 18:20:16 0° 346° (NNW) 3,559 8.0 -13.8°
